[[{"header":{"parameterUnit":"m.s-1","parameterCategory":1,"la1":30.2991,"la2":30.254,"lo1":-89.0895,"lo2":-89.0444,"dy":0.0017,"dx":0.0017,"nx":28,"ny":28,"refTime":"2024-05-07T03:00:00:Z","depth":0,"parameterNumber":2,"parameterNumberName":"U-component_of_WINDS"},"data":[0,0,0,0,0,0,0,0,0,0,0,0,0,0,0,0,0,0,0,0,0,0,0,0,0,0,0,0,0,0,0,0,0,0,0,0,0,0,0,0,0,0,0,0,0,0,0,0,0,0,0,0,0,0,0,0,0,0,-0.499,-0.4989,0,-0.4888,-0.4887,-0.4885,-0.4847,-0.4847,-0.4847,-0.4848,-0.4741,-0.4738,-0.4735,0,0,0,0,0,0,0,0,0,0,0,0,0,-0.5151,-0.5148,-0.499,-0.4988,-0.4987,-0.4888,-0.4886,-0.4885,-0.4847,-0.4847,-0.4847,-0.4848,-0.4742,-0.4738,-0.4735,0,0,0,0,0,0,0,0,0,0,0,0,0,-0.5068,-0.5148,-0.499,-0.4956,-0.4952,-0.4888,-0.4886,-0.4885,-0.4847,-0.4847,-0.4848,-0.4848,-0.4743,-0.4739,-0.4734,-0.4696,0,0,-0.472,-0.4718,0,0,0,0,0,0,0,0,-0.5073,-0.5062,-0.4962,-0.4958,-0.4954,-0.488,-0.4904,-0.4821,-0.4847,-0.4887,-0.4848,-0.4848,-0.4787,-0.4779,-0.4758,-0.4691,-0.4686,-0.4719,-0.4716,-0.4714,-0.4713,0,0,0,0,0,0,0,-0.5079,-0.5067,-0.4949,-0.4961,-0.4956,-0.4946,-0.4935,-0.4888,-0.4835,-0.4883,-0.488,-0.4869,-0.4785,-0.4763,-0.4756,-0.4684,-0.4719,-0.4715,-0.4712,-0.471,-0.4582,-0.4582,0,0,0,0,0,0,-0.509,-0.5072,-0.4952,-0.4946,-0.5016,-0.4943,-0.493,-0.4903,-0.4836,-0.4826,-0.4868,-0.4867,-0.4771,-0.4761,-0.4752,-0.4703,-0.4714,-0.471,-0.4707,-0.4583,-0.4582,-0.4581,0,0,0,0,0,0,-0.5094,-0.508,-0.4957,-0.5008,-0.4992,-0.494,-0.491,-0.4901,-0.488,-0.4825,-0.4815,-0.4856,-0.4771,-0.4758,-0.471,-0.4699,-0.4708,-0.4704,-0.4583,-0.4583,-0.4582,-0.4606,0,0,0,0,0,0,-0.5099,-0.5082,-0.5066,-0.5008,-0.4989,-0.4917,-0.4909,-0.4899,-0.4872,-0.4869,-0.481,-0.4801,-0.477,-0.4718,-0.4706,-0.4693,-0.47,-0.4584,-0.4583,-0.4582,-0.4606,-0.4606,-0.4606,0,0,0,0,0,-0.5105,-0.5076,-0.5066,-0.5051,-0.4969,-0.4917,-0.4906,-0.4871,-0.4871,-0.4855,-0.4821,-0.4803,-0.4703,-0.4713,-0.4699,-0.4685,-0.4585,-0.4583,-0.4582,-0.4605,-0.4606,-0.4606,0,0,0,0,0,0,-0.5133,-0.5068,-0.5055,-0.5007,-0.4968,-0.491,-0.4889,-0.4872,-0.4831,-0.4831,-0.4789,-0.4776,-0.4732,-0.4704,-0.4717,-0.4645,-0.4643,-0.4638,-0.4665,-0.4665,-0.4665,-0.4672,-0.4696,0,0,0,0,0,-0.5134,-0.5097,-0.5042,-0.5005,-0.4986,-0.4941,-0.4917,-0.4894,-0.4852,-0.4834,-0.4796,-0.4755,-0.4714,-0.4688,-0.4647,-0.4602,-0.4589,-0.4585,-0.4585,-0.4586,-0.4582,-0.4558,-0.4556,-0.4577,-0.4577,-0.4577,0,0,-0.5134,-0.5094,-0.5073,-0.5009,-0.4976,-0.4939,-0.4927,-0.4888,-0.486,-0.4828,-0.4781,-0.4752,-0.4703,-0.4657,-0.4635,-0.4632,-0.4574,-0.4584,-0.4585,-0.4581,-0.4556,-0.4554,-0.4552,-0.4576,-0.4576,-0.4577,0,0,-0.5117,-0.5083,-0.5049,-0.5017,-0.4967,-0.4938,-0.493,-0.4876,-0.4855,-0.4808,-0.4784,-0.475,-0.4681,-0.4648,-0.4622,-0.4595,-0.4578,-0.4583,-0.4583,-0.456,-0.4558,-0.4556,-0.4547,-0.4545,-0.458,-0.458,-0.4581,0,-0.5124,-0.5067,-0.5033,-0.4996,-0.4969,-0.494,-0.4906,-0.4876,-0.4816,-0.4798,-0.4796,-0.471,-0.4675,-0.4622,-0.4616,-0.4595,-0.4585,-0.4589,-0.4561,-0.4559,-0.4557,-0.4548,-0.4545,-0.4581,-0.4581,-0.4581,-0.4581,0,-0.5079,-0.504,-0.5019,-0.4963,-0.4934,-0.4898,-0.4859,-0.4833,-0.4814,-0.4786,-0.4739,-0.4697,-0.4648,-0.4634,-0.4614,-0.4578,-0.4578,-0.4569,-0.4566,-0.4557,-0.4547,-0.4544,-0.4583,-0.4583,-0.4582,-0.4582,0,0,-0.5074,-0.5002,-0.4994,-0.4969,-0.4914,-0.4884,-0.4848,-0.4801,-0.4781,-0.4741,-0.471,-0.4653,-0.4646,-0.4617,-0.4593,-0.4573,-0.4556,-0.4567,-0.4565,-0.4566,-0.4515,-0.4522,-0.4518,-0.4545,-0.4544,-0.4544,-0.4519,0,-0.5049,-0.4983,-0.4953,-0.4901,-0.4866,-0.4839,-0.4808,-0.4771,-0.4744,-0.4711,-0.4681,-0.4642,-0.4634,-0.4617,-0.4596,-0.4563,-0.4545,-0.4564,-0.4516,-0.4514,-0.4528,-0.4513,-0.4519,-0.4498,-0.4515,-0.4515,-0.4514,0,-0.5011,-0.4973,-0.4917,-0.4869,-0.4852,-0.4825,-0.4781,-0.4749,-0.4707,-0.4689,-0.4659,-0.4637,-0.4599,-0.4599,-0.4546,-0.456,-0.4539,-0.452,-0.4518,-0.4512,-0.4513,-0.4506,-0.449,-0.4487,-0.4508,-0.4509,-0.4509,0,-0.5013,-0.4948,-0.4907,-0.4886,-0.4828,-0.481,-0.4785,-0.4743,-0.4718,-0.468,-0.4664,-0.4621,-0.4598,-0.4566,-0.4534,-0.4537,-0.4484,-0.4482,-0.4468,-0.4469,-0.4457,-0.4458,-0.4438,-0.4445,-0.4445,-0.4445,-0.4445,0,-0.4988,-0.4956,-0.4907,-0.4882,-0.4845,-0.4811,-0.4776,-0.4749,-0.4713,-0.4683,-0.4657,-0.4629,-0.4588,-0.4555,-0.453,-0.4491,-0.448,-0.4465,-0.4458,-0.4467,-0.4469,-0.4451,-0.4452,-0.4444,-0.4444,-0.4444,-0.4444,0,-0.4984,-0.495,-0.4904,-0.4854,-0.484,-0.4816,-0.4773,-0.4747,-0.4721,-0.4682,-0.4671,-0.4629,-0.4589,-0.4554,-0.4501,-0.4484,-0.4444,-0.4436,-0.4458,-0.4454,-0.4443,-0.4444,-0.441,-0.4404,-0.4416,-0.4415,-0.4415,0,-0.497,-0.4944,-0.4892,-0.487,-0.4846,-0.4811,-0.4786,-0.4752,-0.4727,-0.4679,-0.466,-0.4619,-0.4584,-0.4521,-0.4486,-0.4445,-0.4436,-0.4427,-0.443,-0.444,-0.4436,-0.4438,-0.4435,-0.4427,-0.4427,-0.4427,-0.4427,0,-0.4949,-0.4934,-0.4899,-0.4859,-0.483,-0.4796,-0.4761,-0.4745,-0.4705,-0.4679,-0.4638,-0.4611,-0.4558,-0.4518,-0.4474,-0.4448,-0.4431,-0.4427,-0.4421,-0.4429,-0.4443,-0.4436,-0.4458,-0.4427,-0.4427,-0.4427,-0.4427,-0.4427,-0.4939,-0.4916,-0.4876,-0.4838,-0.4809,-0.4778,-0.4753,-0.4724,-0.469,-0.4644,-0.4627,-0.4586,-0.4547,-0.4487,-0.4462,-0.4429,-0.4426,-0.4419,-0.4416,-0.4415,-0.4417,-0.4449,-0.4421,-0.4421,-0.4421,-0.4421,-0.4421,0,-0.4917,-0.4891,-0.4856,-0.481,-0.4781,-0.4769,-0.4731,-0.4707,-0.4671,-0.4637,-0.4604,-0.4558,-0.452,-0.4482,-0.4442,-0.4423,-0.4414,-0.4414,-0.4414,-0.4409,-0.4421,-0.443,-0.4422,-0.4422,-0.4422,-0.4422,-0.4422,-0.4422,-0.4902,-0.4862,-0.4843,-0.479,-0.4764,-0.4724,-0.4704,-0.4676,-0.4648,-0.4599,-0.4567,-0.4543,-0.4508,-0.4465,-0.4429,-0.4419,-0.4406,-0.4407,-0.4395,-0.4407,-0.4408,-0.4408,-0.4416,-0.4404,-0.4404,-0.4385,-0.4385,-0.4385]},{"header":{"parameterUnit":"m.s-1","parameterCategory":1,"la1":30.2991,"la2":30.254,"lo1":-89.0895,"lo2":-89.0444,"dy":0.0017,"dx":0.0017,"nx":28,"ny":28,"refTime":"2024-05-07T03:00:00:Z","depth":0,"parameterNumber":3,"parameterNumberName":"V-component_of_WINDS"},"data":[0,0,0,0,0,0,0,0,0,0,0,0,0,0,0,0,0,0,0,0,0,0,0,0,0,0,0,0,0,0,0,0,0,0,0,0,0,0,0,0,0,0,0,0,0,0,0,0,0,0,0,0,0,0,0,0,0,0,6.2403,6.2404,0,6.2441,6.2442,6.2442,6.2365,6.2362,6.236,6.2358,6.2395,6.2398,6.2402,0,0,0,0,0,0,0,0,0,0,0,0,0,6.226,6.2263,6.2403,6.2404,6.2404,6.2441,6.2442,6.2442,6.2365,6.2362,6.2359,6.2356,6.2394,6.2398,6.2402,0,0,0,0,0,0,0,0,0,0,0,0,0,6.2313,6.2264,6.2403,6.237,6.2368,6.2441,6.2442,6.2443,6.2366,6.2362,6.2359,6.2355,6.2393,6.2398,6.2403,6.2509,0,0,6.2418,6.242,0,0,0,0,0,0,0,0,6.231,6.2318,6.2375,6.2373,6.237,6.2395,6.2405,6.2465,6.2367,6.2367,6.2358,6.2353,6.2398,6.2402,6.2418,6.2511,6.2513,6.2418,6.2421,6.2424,6.2425,0,0,0,0,0,0,0,6.2306,6.2316,6.2418,6.2376,6.2373,6.2352,6.2356,6.2416,6.2403,6.2366,6.2361,6.2367,6.2396,6.2413,6.2418,6.2513,6.2418,6.2423,6.2426,6.2428,6.2692,6.2696,0,0,0,0,0,0,6.2307,6.2313,6.2417,6.2419,6.233,6.2358,6.2362,6.2391,6.2402,6.24,6.237,6.2363,6.2406,6.2412,6.2419,6.2542,6.2424,6.2428,6.2431,6.2688,6.2693,6.2697,0,0,0,0,0,0,6.2304,6.2317,6.2416,6.2365,6.2376,6.2365,6.2398,6.2393,6.241,6.2405,6.2402,6.239,6.2404,6.2412,6.2487,6.2542,6.2431,6.2435,6.2683,6.2689,6.2695,6.2791,0,0,0,0,0,0,6.23,6.2317,6.2358,6.2366,6.2379,6.2484,6.2401,6.2397,6.2419,6.2411,6.2423,6.2421,6.2401,6.248,6.2492,6.2547,6.2439,6.2678,6.2686,6.2693,6.2783,6.28,6.2814,0,0,0,0,0,6.2296,6.2385,6.2361,6.2374,6.2431,6.2488,6.2495,6.247,6.2424,6.2465,6.2461,6.2421,6.2535,6.2488,6.2501,6.2559,6.2674,6.2684,6.2692,6.2776,6.2796,6.2814,0,0,0,0,0,0,6.2384,6.2385,6.2359,6.2453,6.2471,6.2475,6.2526,6.2493,6.2524,6.2515,6.2482,6.2486,6.2566,6.257,6.2518,6.2661,6.2596,6.2608,6.2655,6.2675,6.269,6.2687,6.2443,0,0,0,0,0,6.2414,6.2461,6.2459,6.2543,6.2553,6.2538,6.2562,6.2541,6.2558,6.2565,6.2566,6.2583,6.2622,6.2649,6.2685,6.2783,6.2783,6.2829,6.2844,6.2857,6.2868,6.2917,6.2936,6.2726,6.2726,6.2726,0,0,6.2478,6.2484,6.2516,6.256,6.2572,6.2619,6.2545,6.2599,6.2633,6.2573,6.2643,6.2644,6.2661,6.2747,6.2785,6.2753,6.2926,6.2869,6.2879,6.2883,6.2928,6.2948,6.2966,6.2733,6.2731,6.273,0,0,6.2617,6.2628,6.2697,6.2709,6.2726,6.2715,6.2731,6.2739,6.2738,6.2807,6.2762,6.2802,6.2871,6.2883,6.2899,6.3039,6.3003,6.3052,6.3133,6.3181,6.3198,6.3212,6.326,6.3278,6.3062,6.3063,6.3063,0,6.2694,6.2765,6.2736,6.2793,6.2812,6.2759,6.2827,6.284,6.2868,6.2882,6.2846,6.2929,6.2936,6.3023,6.3057,6.3072,6.3088,6.305,6.3198,6.3212,6.3225,6.327,6.3289,6.3068,6.3068,6.3067,6.3067,0,6.2856,6.2906,6.2959,6.2987,6.3012,6.3075,6.3054,6.3083,6.3059,6.3051,6.3121,6.3128,6.3163,6.3182,6.316,6.3265,6.3244,6.3203,6.3138,6.3251,6.3293,6.331,6.3077,6.3075,6.3073,6.3071,0,0,6.3055,6.3063,6.3083,6.3093,6.3107,6.3144,6.3202,6.3236,6.326,6.3281,6.3327,6.3385,6.3346,6.3364,6.3343,6.3385,6.3492,6.3339,6.3338,6.3365,6.3605,6.3635,6.3656,6.3468,6.3471,6.3474,6.3603,0,6.3192,6.3292,6.3266,6.3366,6.3409,6.3357,6.3407,6.342,6.3413,6.3448,6.344,6.3481,6.3428,6.3438,6.3478,6.3471,6.354,6.3462,6.351,6.3512,6.3506,6.3678,6.371,6.3832,6.362,6.3622,6.3624,0,6.3365,6.3391,6.3494,6.3497,6.3514,6.356,6.3586,6.3621,6.3633,6.3625,6.3643,6.3612,6.3667,6.3602,6.3676,6.3623,6.3641,6.3641,6.3645,6.3648,6.3575,6.3684,6.3871,6.3889,6.365,6.3648,6.3646,0,6.3497,6.3557,6.3626,6.3636,6.3642,6.3675,6.3678,6.3687,6.3707,6.373,6.3743,6.3773,6.3789,6.3812,6.3789,6.3744,6.3866,6.3799,6.3859,6.386,6.3887,6.3886,6.4078,6.3901,6.3901,6.3901,6.39,0,6.3652,6.3717,6.3684,6.3727,6.3797,6.3765,6.3835,6.3832,6.384,6.3879,6.3836,6.3874,6.3842,6.3876,6.3859,6.3921,6.3929,6.3923,6.3918,6.3927,6.3927,6.3937,6.3928,6.3905,6.3904,6.3903,6.3903,0,6.3812,6.3793,6.3864,6.3862,6.3863,6.3914,6.3912,6.395,6.3939,6.3989,6.3999,6.3982,6.402,6.3999,6.4039,6.4026,6.4107,6.4091,6.4103,6.4098,6.4159,6.4153,6.4364,6.4389,6.4197,6.4199,6.4201,0,6.3912,6.396,6.3962,6.3985,6.3991,6.4029,6.4049,6.4019,6.4041,6.4056,6.4092,6.4126,6.4152,6.4214,6.4205,6.4234,6.4217,6.4289,6.4221,6.4228,6.4216,6.4213,6.4217,6.4302,6.4305,6.4307,6.4308,0,6.409,6.4077,6.4108,6.4134,6.4159,6.4178,6.4194,6.4216,6.4185,6.4212,6.425,6.427,6.4308,6.4342,6.4366,6.4369,6.4333,6.4329,6.4344,6.4354,6.4358,6.4355,6.4139,6.4325,6.4323,6.4322,6.4321,6.432,6.4221,6.426,6.4267,6.4301,6.4309,6.4324,6.4359,6.4351,6.4382,6.441,6.439,6.4434,6.4442,6.447,6.4477,6.451,6.4481,6.4504,6.4509,6.4515,6.4523,6.4353,6.4515,6.4514,6.4514,6.4513,6.4513,0,6.4396,6.4396,6.4428,6.445,6.4477,6.444,6.4454,6.4479,6.4518,6.4527,6.4553,6.4594,6.4626,6.4618,6.4646,6.4673,6.4658,6.4682,6.4679,6.4679,6.4548,6.4531,6.4694,6.4694,6.4694,6.4694,6.4694,6.4694,6.449,6.4552,6.454,6.4605,6.4605,6.4647,6.4658,6.4671,6.4678,6.4726,6.4751,6.4745,6.4747,6.4774,6.4801,6.4798,6.4809,6.4839,6.483,6.4707,6.4689,6.4672,6.4656,6.4842,6.4843,6.4958,6.4959,6.496]}]]